Location: *
(46.1006°N, 1.8394°E)
Time: 02:19:12
(UTC+00:00)

COBE Rocket - Pass Details

Date: 20 September 2019
Orbit: 681 x 781 km, 97.1° (Epoch: 18 October)

Event Time Altitude Azimuth Distance (km) Brightness Sun altitude
Rises 18:22:51 0° 9° (N) 3,194 7.2 -5.6°
Reaches altitude 10° 18:25:07 10° 8° (N) 2,280 6.5 -6.0°
Maximum altitude 18:30:08 72° 285° (WNW) 806 4.4 -6.9°
Drops below altitude 10° 18:35:14 10° 202° (SSW) 2,314 6.7 -7.8°
Sets 18:37:34 0° 200° (SSW) 3,244 7.4 -8.2°
